Probability
21 21 18 15 16 17 19 22 22 20 20 21 23 26 27 26 23 20 18 18 18 19 18 18 17 16 15 13 12 11 10 9 9 7 5 4 4 4 5 6 4 1 1
20 20 19 17 16 15 16 19 20 19 20 21 23 26 26 25 23 21 19 20 20 20 18 18 18 16 15 14 13 12 11 9 8 7 6 5 4 4 5 5 4 2 3
17 18 19 19 17 14 14 16 17 18 19 21 22 24 24 23 24 23 21 22 22 20 19 18 18 16 15 14 13 13 12 10 9 8 7 5 3 3 4 4 3 3 4
15 16 18 19 19 17 16 17 17 17 17 19 20 21 20 20 21 21 21 21 21 20 18 18 17 15 13 12 12 12 12 10 9 8 7 5 4 3 3 3 3 3 4
14 16 18 19 19 17 17 19 18 14 13 14 17 18 18 17 16 16 17 19 19 17 15 15 15 14 12 11 11 13 13 11 9 8 7 6 6 3 1 1 1 2 2
12 14 18 19 17 16 16 16 13 10 9 10 14 17 17 15 12 12 14 16 15 13 12 12 13 13 12 11 12 14 13 12 10 9 8 7 5 2 0 0 0 1 1
9 12 16 17 17 15 13 10 8 8 7 8 11 15 15 14 12 10 11 13 13 12 12 10 10 12 11 11 12 13 14 14 13 11 10 9 6 3 2 1 1 0 0
7 9 13 15 16 14 10 7 6 7 7 7 10 13 13 14 13 10 9 10 11 10 9 8 9 10 11 10 10 11 12 14 13 11 11 10 8 7 6 5 5 3 1
5 6 8 11 13 12 9 7 7 7 5 6 9 10 11 12 11 9 8 8 8 7 6 6 7 9 10 9 9 10 12 13 12 10 10 10 9 9 10 9 9 6 3
2 3 5 7 9 9 8 7 7 5 4 4 7 7 7 7 6 6 6 6 6 5 6 6 7 7 7 7 8 9 10 10 10 10 10 10 10 11 11 11 10 8 5
1 2 3 3 4 5 5 6 4 3 2 3 4 4 4 3 3 5 5 4 3 4 6 7 7 6 5 6 7 8 8 8 8 8 9 8 8 9 10 9 9 9 9
0 1 1 1 1 1 2 2 2 1 0 1 2 1 1 1 2 3 3 3 3 3 5 6 6 6 5 6 7 7 6 6 6 5 4 4 5 7 8 7 8 10 12
0 0 0 0 0 0 0 0 0 0 0 0 1 1 1 1 0 1 1 2 2 3 4 4 4 5 5 5 6 5 4 4 3 2 2 1 3 5 6 5 6 8 10
0 0 0 0 0 0 0 0 0 0 0 0 0 1 2 1 1 1 1 1 1 2 2 1 2 2 3 3 4 4 3 3 3 2 1 2 2 3 3 2 3 5 6
0 0 0 0 0 0 0 0 0 0 0 0 0 1 1 1 2 2 1 0 0 0 0 0 0 0 1 2 3 3 3 3 3 2 2 1 1 1 1 1 2 3 4
0 0 1 0 0 0 0 0 0 0 0 0 0 0 0 1 2 2 1 0 0 0 0 0 0 0 0 1 2 3 3 3 3 3 2 0 0 0 0 0 1 2 3
0 0 0 0 0 0 0 0 0 0 0 0 0 0 0 0 1 1 0 1 2 1 0 0 0 0 0 0 1 1 3 4 3 3 1 1 1 2 2 2 2 2 2
0 0 0 1 1 2 1 1 0 0 0 0 0 0 0 0 0 0 0 1 3 2 1 1 0 0 0 0 0 1 3 4 4 3 2 3 4 4 4 4 4 4 4
0 1 1 1 2 2 2 1 0 0 0 0 0 0 0 0 0 0 0 1 3 3 2 1 0 0 1 1 0 1 2 3 3 2 2 3 4 4 3 4 6 6 6
1 1 1 1 1 1 1 0 0 0 0 0 0 0 0 0 0 0 1 1 2 2 1 0 0 1 2 1 0 0 1 1 1 1 2 3 3 2 2 4 6 6 6
0 1 1 1 2 1 1 0 0 0 0 0 0 0 0 0 0 0 1 2 1 1 0 1 1 1 1 1 0 0 0 0 1 2 2 3 2 1 1 3 5 4 4
1 1 2 3 3 3 2 1 0 0 0 0 0 0 0 0 0 0 1 1 1 0 0 1 1 1 0 0 0 0 0 1 2 2 2 2 1 0 0 1 2 3 3
2 3 3 3 3 3 3 1 0 0 0 0 0 0 0 0 0 0 0 0 0 0 0 1 1 0 0 0 0 0 0 0 1 1 1 1 0 0 0 0 1 1 2
3 3 3 3 3 3 3 2 1 0 0 0 0 0 0 0 0 0 0 0 0 0 0 0 0 0 0 0 0 0 0 0 0 0 0 0 0 0 0 0 0 0 1
3 3 3 3 3 3 3 3 1 1 1 1 0 0 0 0 0 0 0 0 0 0 0 0 0 0 0 0 0 0 0 0 0 0 0 0 0 0 0 0 0 0 0
3 3 3 3 3 3 3 3 2 1 2 1 0 0 0 0 0 0 0 0 0 0 0 0 0 0 0 0 0 0 0 0 0 0 0 0 0 0 0 0 0 0 0
Wind_Speed
5 5 5 5 4 4 3 2 2 2 1 1 2 2 2 2 2 3 4 4 4 4 3 2 2 3 2 2 2 3 3 3 2 3 3 4 5 4 4 4 4 4 4
4 5 4 4 4 3 2 2 2 1 1 1 1 1 1 1 1 1 2 3 3 3 3 3 2 2 2 2 2 3 3 2 2 3 3 3 4 4 4 4 4 4 4
3 3 3 3 3 2 1 1 1 1 1 1 1 1 1 1 2 2 2 3 3 3 2 3 2 2 2 2 2 3 4 3 2 3 3 3 3 2 3 4 3 3 4
3 3 3 3 3 2 1 1 1 1 1 1 1 1 1 1 1 1 2 3 3 3 2 2 1 1 2 1 3 1 3 4 3 2 3 4 4 4 3 3 3 3 4
3 3 3 3 3 2 2 2 2 1 0 1 2 2 2 1 1 1 2 2 3 3 3 2 2 2 2 1 2 2 3 3 3 3 3 3 3 5 5 5 4 4 3
4 4 3 3 3 2 1 2 1 1 1 1 1 2 2 2 2 2 2 2 2 3 3 3 2 2 2 2 2 3 3 3 3 4 4 4 4 4 4 5 6 5 4
4 3 4 4 3 2 2 1 1 1 1 1 1 2 3 3 3 3 2 2 2 2 2 2 2 2 2 2 3 3 3 4 4 4 4 4 4 4 5 6 6 6 6
5 4 4 3 2 2 1 0 1 1 1 1 1 2 3 2 2 2 1 1 1 0 1 2 2 3 3 3 3 4 4 3 4 5 4 5 4 4 4 5 6 6 6
5 4 4 3 2 1 1 1 0 0 1 1 2 2 2 1 1 2 2 1 1 1 2 2 2 3 3 3 3 3 4 4 5 5 5 5 4 5 4 5 5 6 8
5 5 4 3 3 2 1 1 0 1 1 1 1 1 2 2 1 2 1 0 1 1 2 2 3 3 3 3 3 3 3 4 4 4 4 5 5 4 5 5 6 6 7
4 4 4 3 3 2 1 1 1 0 0 1 1 1 1 1 1 1 1 1 1 1 2 2 2 2 2 2 3 4 3 4 4 4 5 5 6 5 5 5 6 6 6
4 4 4 3 3 3 2 2 1 1 0 0 1 1 1 1 1 1 1 2 2 2 2 2 2 2 2 2 4 4 4 4 4 4 5 6 5 6 6 5 6 6 6
4 4 4 3 3 2 2 2 2 1 0 1 1 1 2 1 1 2 2 1 1 1 1 1 1 2 2 2 3 3 3 3 4 4 4 5 5 6 5 6 6 6 6
4 4 3 3 3 2 2 2 2 1 0 1 1 2 2 1 1 2 1 1 1 1 0 1 1 2 2 2 2 3 3 3 3 4 4 5 5 6 6 6 6 6 7
4 4 4 3 3 3 3 2 2 1 0 0 1 1 1 1 1 2 2 1 1 1 0 1 1 1 2 1 2 3 3 3 4 4 4 4 4 4 5 6 6 7 7
4 4 4 3 3 3 3 2 2 1 1 1 1 2 1 2 2 2 2 1 1 0 0 1 1 1 1 3 2 4 4 4 4 4 5 5 3 3 5 6 7 8 8
4 4 4 3 3 3 3 2 1 1 1 1 2 2 2 2 2 1 2 1 1 0 0 1 1 1 1 2 1 3 5 5 4 5 5 5 4 4 5 5 6 7 7
4 3 3 3 2 2 2 1 1 2 1 2 2 2 2 2 2 2 1 1 0 0 0 1 1 1 1 1 1 3 5 4 4 4 4 4 5 4 6 7 6 6 5
3 3 3 2 2 1 1 1 1 2 2 2 2 2 2 2 2 1 1 1 1 1 1 1 1 2 1 1 1 5 4 3 4 4 3 3 4 3 6 7 6 6 5
3 3 3 2 2 2 2 1 2 2 2 2 2 2 2 1 1 1 1 1 1 1 2 1 1 2 2 1 1 4 4 3 3 3 2 2 3 3 5 6 6 6 6
3 3 2 2 2 2 2 2 2 3 2 2 2 2 2 1 1 1 1 1 1 1 1 2 2 1 2 1 1 2 4 4 4 4 3 3 2 3 5 6 5 6 8
2 2 2 3 2 2 2 2 3 3 2 2 2 2 2 1 2 1 1 1 2 1 1 1 2 1 1 1 1 1 3 5 4 4 4 3 2 5 6 5 4 7 8
2 2 2 2 2 2 1 2 2 2 2 2 2 2 2 1 1 0 1 1 1 2 2 2 2 2 1 2 3 1 2 4 3 3 3 2 4 5 4 3 5 6 4
1 0 1 1 2 2 1 1 1 1 1 1 2 1 1 1 1 1 1 1 2 2 3 3 3 3 2 3 2 1 1 2 2 2 2 5 7 5 3 3 2 3 4
0 0 1 0 1 1 1 1 1 0 1 1 1 1 1 1 1 1 2 3 3 4 4 4 4 4 3 4 5 4 3 4 3 4 3 3 2 3 3 3 3 4 3
1 1 1 1 0 1 1 1 0 1 1 1 1 2 1 1 1 1 1 2 1 2 1 3 5 3 3 2 2 3 4 4 5 5 3 3 4 5 5 5 4 4 5
Wind_Direction
60 60 59 60 67 70 76 95 92 99 138 181 197 197 191 199 193 185 172 182 191 186 204 212 183 226 201 224 228 233 219 228 244 252 244 236 234 239 249 255 267 261 264
58 65 63 65 69 73 75 96 121 132 197 186 201 216 196 209 189 172 162 182 181 184 190 191 207 203 202 211 231 234 244 229 233 266 259 247 222 217 237 247 248 267 269
48 63 65 59 59 61 71 94 133 152 188 179 181 171 165 200 182 181 175 175 177 173 187 190 212 216 222 208 227 235 243 247 237 265 279 279 281 288 216 240 254 262 272
43 46 57 51 43 59 78 106 111 119 165 210 189 202 202 196 194 211 171 169 176 181 177 178 186 233 243 221 235 225 251 252 246 232 260 284 314 289 274 242 245 260 267
39 42 44 45 39 48 84 101 102 103 178 234 195 212 214 199 193 202 169 187 167 177 181 181 191 215 240 245 254 250 258 253 263 261 255 256 248 259 278 289 291 277 274
35 37 37 44 38 32 54 84 110 139 175 199 206 204 198 216 209 202 188 188 167 176 176 184 195 218 232 237 242 250 243 258 264 275 273 267 265 269 276 279 280 286 286
37 33 32 33 22 17 23 46 130 176 179 180 196 203 204 207 211 214 192 202 179 174 166 190 206 227 233 245 250 244 254 250 253 261 272 278 279 284 281 279 283 287 284
27 19 25 23 13 13 1 337 196 189 188 185 189 193 212 216 210 214 224 188 193 162 169 200 214 230 237 244 241 246 247 248 252 258 271 276 277 282 279 279 286 285 284
13 8 17 13 15 15 344 312 284 203 207 194 173 183 206 214 200 189 201 201 164 190 192 216 226 234 240 246 244 248 252 254 256 259 256 266 274 269 275 273 272 280 287
8 8 11 6 12 10 19 9 322 217 214 208 200 185 191 174 170 187 153 200 235 223 221 234 234 239 239 240 247 249 242 257 262 264 271 273 276 283 271 266 268 269 276
5 6 9 14 15 13 18 26 26 15 223 195 175 178 178 159 177 161 164 188 214 200 223 243 241 241 239 245 253 263 257 258 266 265 264 266 272 279 280 276 272 270 271
14 14 12 13 16 5 7 15 20 39 342 212 170 156 187 184 191 165 169 181 192 205 220 234 242 241 237 245 257 265 266 265 269 272 275 276 276 278 279 285 282 280 274
15 16 18 11 6 360 1 5 5 23 214 204 181 163 180 178 188 172 175 182 188 205 228 237 253 256 258 258 269 271 268 273 282 285 286 287 289 287 292 288 289 289 286
17 12 9 6 5 5 5 356 352 359 58 197 188 176 171 176 185 171 158 158 172 178 223 256 278 281 280 286 289 285 282 285 290 288 284 285 290 290 295 292 292 293 293
10 8 3 5 358 7 9 4 1 4 10 216 179 150 134 151 155 134 133 143 154 150 144 274 277 291 287 318 323 300 291 286 284 287 288 290 293 297 293 297 304 297 290
2 1 360 0 356 1 360 12 18 11 31 77 101 103 105 117 119 119 119 117 118 121 298 295 311 310 351 53 357 303 292 287 288 295 300 295 279 287 270 268 274 278 281
357 354 355 351 348 353 354 14 44 36 58 80 90 98 95 87 87 99 102 108 130 145 301 304 291 320 42 61 334 299 285 282 291 296 298 304 321 293 302 289 265 263 253
357 356 346 344 351 350 356 35 51 61 79 89 88 91 100 90 87 88 79 66 21 347 313 286 298 303 63 111 281 292 267 280 288 290 289 295 305 333 317 301 300 296 294
4 357 351 356 6 22 37 67 56 56 68 65 68 76 77 85 92 88 53 31 331 316 296 283 296 300 332 106 282 291 285 296 300 302 307 300 309 359 320 296 301 306 306
18 8 10 22 40 47 54 74 70 59 54 55 62 63 61 71 80 70 27 6 319 293 293 323 308 310 327 52 289 286 289 308 304 305 296 67 352 340 314 302 305 308 311
32 29 30 48 54 62 63 66 63 55 46 52 63 65 59 56 62 59 5 324 300 321 326 338 327 327 354 104 216 289 299 316 314 323 328 27 40 324 306 296 303 311 302
47 41 44 60 60 72 87 77 60 52 51 62 66 58 43 33 68 71 352 317 302 279 278 302 314 8 67 31 100 242 288 309 312 322 336 12 352 306 293 298 318 300 290
54 53 62 67 60 58 51 61 55 44 50 61 57 53 49 52 55 20 296 274 274 294 316 331 339 355 9 103 140 200 252 264 288 333 3 307 267 276 277 257 276 286 306
43 44 75 74 64 50 52 53 49 36 37 48 47 44 37 40 71 294 313 330 332 328 331 335 335 340 352 10 14 333 277 227 255 303 271 232 240 255 293 298 291 319 340
3 215 239 193 94 105 108 95 79 71 43 22 10 327 315 20 337 348 355 343 4 1 329 333 332 333 353 20 7 338 340 338 348 311 288 305 328 331 337 337 339 336 334
326 267 242 246 239 187 159 149 174 208 242 267 296 297 298 320 307 337 72 99 24 55 26 329 321 347 15 6 348 346 341 333 314 299 317 336 340 341 342 340 343 343 342